NEE-02 KRYSAOR

Last updated on Sun Apr 12 2026 00:03:55 GMT+0000 (Coordinated Universal Time)

1 39441U 13066AB 26101.29906240 .00001993 00000+0 22399-3 0 9998 2 39441 97.8850 41.0201 0064903 289.6250 69.7968 14.86385463666261
UTC large
Height (km)
Speed (km/s)
/
Latitude / Longitude
Inclination (degrees)
Orbital Period (minutes)
Azimuth
Elevation
Range (km)
Doppler Factor

Next 0 passes for location: London (51.5072 / 0.1276)

Sorry there are no passes over London.